Location: Neumark
(53.2815°N, 14.7811°E)
Time: 14:22:34
(UTC+00:00)

Daily predictions for brighter satellites

Satellite Brightness Start Highest point End
(mag) Time Altitude Azimuth Time Altitude Azimuth Time Altitude Azimuth
SeaSat 1 3.4 20:13:57 10° S 20:18:35 41° WSW 20:23:16 10° NW
USA 234 3.3 20:14:07 10° ENE 20:20:36 60° SE 20:27:03 10° SW
EXPRESS MD2 3.6 20:19:41 10° SSW 20:21:39 19° SSE 20:23:21 10° ESE
Cosmos 1953 4.2 20:19:15 10° NNE 20:21:58 18° ENE 20:24:40 10° ESE
Cosmos 1869 Rocket 3.8 20:19:07 10° NNW 20:23:34 76° W 20:28:01 10° S
Cosmos 1455 4.1 20:24:23 10° NNE 20:26:37 16° ENE 20:28:51 10° ESE
Cosmos 2315 Rocket 4.2 20:20:59 10° N 20:27:22 71° ENE 20:33:44 10° SSE
Cosmos 2360 Rocket 2.4 20:24:43 10° NNW 20:30:26 70° NE 20:36:05 10° SE
MOS 1 Rocket 3.9 20:27:59 10° S 20:33:22 70° WSW 20:38:41 10° NNW
Meteor 1-12 Rocket 4.5 20:28:55 10° NNW 20:34:59 87° ENE 20:41:01 10° SSE
Cosmos 841 Rocket 3.7 20:29:51 10° NNW 20:35:07 73° WSW 20:40:21 10° SSE
Cosmos 2333 Rocket 2.4 20:29:26 10° NNW 20:35:12 70° NE 20:40:57 10° SE
Cosmos 1441 Rocket 4.4 20:33:48 10° NNW 20:37:08 36° W 20:40:28 10° SSW
SL-16 R/B 2.5 20:32:25 10° NW 20:38:01 63° WSW 20:43:36 10° SSE
ERS-1 Rocket 4.0 20:35:14 10° S 20:39:59 42° W 20:44:47 10° NNW
RESURS DK-1 2.4 20:37:31 10° NW 20:41:36 71° WSW 20:45:34 10° SSE
Cosmos 839 Rocket 4.4 20:37:01 10° NW 20:44:28 74° NE 20:50:44 10° SE
Spot 2 Rocket 4.2 20:39:36 10° S 20:44:31 50° W 20:49:29 10° NNW
In-Cosmos 22 4.3 20:39:00 10° SSW 20:44:39 84° WNW 20:50:12 10° NNE
Cosmos 2082 Rocket 3.1 20:40:02 10° SW 20:45:39 55° NW 20:51:16 10° NNE
SL-14 R/B 3.4 20:42:43 10° S 20:46:25 55° E 20:50:10 10° NNE
Cosmos 1300 2.5 20:45:45 10° NNW 20:49:20 84° W 20:52:53 10° S
Kosmos-1783 4.3 20:48:35 10° NW 20:51:36 60° NE 20:57:35 10° ESE
Aureole 3 4.1 20:50:55 11° SSE 20:54:23 41° E 20:58:50 10° NNE
Cosmos 1346 Rocket 2.8 20:54:03 10° NNW 20:57:57 82° W 21:01:35 11° S
Meteor 1-16 Rocket 4.5 20:54:13 10° N 21:00:08 70° ENE 21:05:41 12° SSE
Cosmos 1862 Rocket 3.8 20:55:51 10° S 21:00:09 57° E 21:04:30 10° NNE
ATLAS 2AS CENTAUR R/B 2.7 20:54:36 10° NW 21:01:32 78° SW 21:07:52 11° SE
Cosmos 2237 Rocket 4.1 20:57:44 10° NNW 21:02:21 24° NNE 21:06:56 10° E
Cosmos 2333 4.3 21:01:49 10° NNW 21:07:38 89° ENE 21:12:55 13° SSE
Cosmos 1758 3.9 21:05:12 10° NNW 21:09:00 50° W 21:12:47 10° S
Ariane Rocket 4.3 21:04:34 10° SSW 21:09:11 34° W 21:13:51 10° NNW
Meteor 1-4 Rocket 2.9 21:09:49 16° SSE 21:11:51 35° E 21:14:38 10° NNE
Cosmos 1356 Rocket 3.4 21:09:50 10° S 21:14:02 88° ESE 21:18:16 10° NNE
Cosmos 807 4.3 21:16:39 10° SSW 21:20:03 83° WNW 21:23:04 10° N
Cosmos 1850 Rocket 4.0 21:15:01 10° SSW 21:20:15 79° ESE 21:25:29 10° NNE
Cosmos 1707 Rocket 3.7 21:16:40 10° SSW 21:21:07 79° WNW 21:25:36 10° N
ARIANE 5 R/B 2.6 21:17:31 14° SSE 21:21:10 73° ENE 21:25:30 10° NNW
SL-27 R/B 1.9 21:19:33 14° S 21:21:45 56° ESE 21:24:31 10° NNE
Cosmos 2322 Rocket 2.9 21:17:05 10° NW 21:22:30 47° WSW 21:27:28 12° S
Meteor 1-21 4.3 21:21:48 10° SSW 21:27:36 87° W 21:33:28 10° NNE
Okean 2 3.6 21:24:44 15° SSE 21:27:49 51° E 21:31:45 10° NNE
Landsat 5 4.0 21:26:04 10° N 21:29:56 55° WNW 21:33:55 10° SSW
Cosmos 1655 Rocket 4.5 21:24:48 10° SSW 21:31:09 65° WNW 21:37:32 10° N
Nadezhda 1 Rocket 4.3 21:25:32 10° N 21:31:48 58° ENE 21:37:05 14° SSE
SJ 16-02 1.5 21:28:53 13° S 21:32:36 54° ESE 21:36:50 10° NNE
USA 281 3.4 21:32:45 14° SSE 21:38:29 70° WSW 21:45:05 10° NNW
Cosmos 1741 Rocket 4.1 21:33:33 10° SSW 21:38:50 82° WNW 21:44:11 10° NNE
Cosmos 1733 Rocket 4.3 21:36:06 10° NNW 21:40:08 36° W 21:44:09 10° SSW
COSMOS 2428 3.0 21:35:19 10° NNW 21:41:00 64° NE 21:46:15 12° SE
GP-B 3.1 21:36:58 10° N 21:41:23 70° E 21:44:46 17° S
Okean 3 3.7 21:39:26 10° SSW 21:43:28 69° WNW 21:47:39 10° N
Terra 4.2 21:41:15 10° WSW 21:43:50 15° W 21:46:26 10° NW
Cosmos 1814 Rocket 4.5 21:40:40 10° NNW 21:45:49 54° WSW 21:50:00 16° S
Cosmos 968 Rocket 3.5 21:41:40 10° SSW 21:46:50 89° ESE 21:52:04 10° NNE
SL-4 R/B 1.9 21:45:07 10° W 21:49:04 70° S 21:53:17 10° E
Cosmos 2228 Rocket 4.3 21:46:05 10° SW 21:50:23 40° WNW 21:54:44 10° N
Cosmos 2219 Rocket 2.4 21:45:45 10° NW 21:51:22 64° WSW 21:55:47 17° SSE
Cosmos 1408 3.8 21:50:12 16° SE 21:51:28 20° E 21:53:47 10° NE
Cosmos 1908 Rocket 3.6 21:47:16 10° NNW 21:51:39 74° W 21:54:53 17° S
MINOTAUR 4 R/B 3.5 21:49:40 10° NNE 21:52:36 71° ESE 21:54:22 21° S
Cosmos 1782 Rocket 3.7 21:49:44 10° N 21:54:04 67° ENE 21:57:10 18° SSE
Cosmos 1315 Rocket 2.8 21:51:04 15° SSW 21:54:17 90° E 21:58:19 10° NNE
Cosmos 2208 Rocket 4.2 21:49:38 10° NNW 21:54:52 70° ENE 21:59:07 15° SE
ATLAS CENTAUR R/B 0.8 21:52:50 10° SW 21:56:19 78° SE 21:59:58 10° NE
Cosmos 158 Rocket 4.2 21:52:43 10° NNW 21:58:05 70° ENE 22:02:24 15° SE
Cosmos 1953 2.7 21:54:22 10° NNW 21:58:08 53° W 22:00:51 17° SSW
Cosmos 1455 2.5 21:57:56 10° NNW 22:01:22 51° W 22:03:41 18° SSW
H-2A R/B 2.6 21:59:30 19° S 22:02:35 78° WSW 22:06:53 10° NNW
USA 234 3.5 21:57:15 10° ENE 22:03:48 76° NNW 22:10:20 10° W
Cosmos 1242 Rocket 1.8 22:04:20 26° S 22:05:43 68° ESE 22:08:29 10° NNE
Spot 4 3.8 22:03:33 18° SSE 22:07:06 84° WSW 22:11:58 10° NNW
CZ-2C R/B 3.9 22:03:10 10° N 22:07:33 68° WNW 22:11:36 12° SSW
Okean 1-7 3.4 22:04:58 13° SSW 22:08:47 62° WNW 22:13:06 10° N
BREEZE-M DEB (TANK) 4.5 22:08:14 10° SW 22:09:06 13° SSW 22:09:06 13° SSW
CZ-4C R/B 3.5 22:11:45 14° SE 22:13:37 18° ESE 22:17:07 10° ENE
Cosmos 2360 Rocket 3.6 22:09:19 10° NW 22:13:57 26° WSW 22:18:06 12° SSW
ALOS 2 2.6 22:11:53 19° SSE 22:14:59 86° ENE 22:19:24 10° NNW
Cosmos 1300 Rocket 3.5 22:12:06 10° N 22:16:26 90° ENE 22:19:20 20° S
Cosmos 2333 Rocket 3.6 22:14:19 10° NW 22:19:01 27° WSW 22:23:08 12° SSW
SL-16 R/B 4.4 22:18:49 10° WNW 22:20:59 12° W 22:23:09 10° WSW
H-2A R/B 3.5 22:17:32 10° NE 22:21:06 25° E 22:23:29 16° SE
Cosmos 1709 Rocket 4.2 22:20:21 18° S 22:25:13 64° E 22:31:31 10° NNE
EXPRESS MD2 3.2 22:26:40 10° WSW 22:27:54 25° SW 22:27:54 25° SW
BREEZE-M DEB (TANK) 3.3 22:21:44 10° W 22:33:36 62° S 22:37:06 10° ESE
Cosmos 2098 Rocket 4.3 22:27:08 10° N 22:33:40 68° ENE 22:38:55 17° SSE
USA 129 2.0 22:32:12 10° NNE 22:33:55 42° N 22:33:55 42° N
Cosmos 1703 Rocket 4.2 22:32:44 14° SSW 22:36:28 51° WNW 22:40:51 10° N
SL-16 R/B 3.8 22:32:48 10° NNW 22:37:56 33° NE 22:43:03 10° ESE
NOSS 0 Rocket 4.0 22:32:02 10° NW 22:38:17 79° WSW 22:43:20 16° SSE
Cosmos 2242 Rocket 3.7 22:36:20 21° S 22:39:23 75° E 22:43:59 10° NNE
Cosmos 1486 Rocket 4.4 22:38:07 20° S 22:41:32 50° ESE 22:46:34 10° NE
Meteor 1-24 Rocket 4.1 22:39:51 19° SSE 22:44:00 56° E 22:49:33 10° NNE
Cosmos 2322 4.3 22:40:25 10° NW 22:45:47 44° WSW 22:49:30 19° S
Cosmos 2237 Rocket 2.3 22:41:35 10° NNW 22:47:19 80° ENE 22:52:21 13° SE
BlueWalker 3 3.0 22:50:03 23° SSE 22:50:46 25° SE 22:53:54 10° E
ATLAS 2AS CENTAUR R/B 4.1 22:46:31 10° WNW 22:51:24 21° WSW 22:55:16 13° SSW
Cosmos 1825 3.7 22:51:34 15° SE 22:53:23 23° E 22:56:08 10° NE
Cosmos 405 Rocket 2.7 22:49:53 10° N 22:53:38 72° ENE 22:55:58 22° SSE
Cosmos 2227 Rocket 3.7 22:53:35 14° SE 22:57:00 23° ESE 23:01:22 10° NE
Cosmos 304 Rocket 4.2 22:55:48 21° S 22:58:44 48° ESE 23:03:19 10° NE
Orbus 7S? 3.8 22:56:44 10° WNW 22:59:32 43° N 23:02:14 10° E
Cosmos 1980 3.7 22:54:18 10° NNW 22:59:59 83° WSW 23:04:39 16° SSE
PSLV R/B 3.5 23:01:54 10° NNE 23:06:12 89° E 23:08:59 21° SSW
Meteor 2-5 Rocket 3.8 23:03:32 19° S 23:07:56 82° E 23:13:49 10° NNE
Cosmos 1703 3.1 23:06:48 23° SSW 23:09:01 75° WNW 23:12:44 10° N
SJ 16-02 3.3 23:07:40 10° WSW 23:11:15 25° NW 23:14:51 10° N
COSMOS 2455 3.0 23:08:59 18° SSW 23:13:33 63° ESE 23:19:31 10° NE
Cosmos 2297 Rocket 2.5 23:13:10 19° S 23:17:02 54° ESE 23:22:32 10° NE
Cosmos 2181 Rocket 4.0 23:11:19 10° NNW 23:17:33 78° W 23:22:13 18° S
Okean 1 Rocket 3.2 23:19:05 10° N 23:23:26 70° ENE 23:26:39 18° SSE
Cosmos 1408 3.8 23:22:14 14° WSW 23:24:07 25° WNW 23:26:40 10° NNW
COSMOS 2428 3.8 23:20:04 10° NW 23:24:53 29° WSW 23:28:13 17° SSW
GEOS 3 Rocket 3.7 23:22:29 10° NE 23:27:37 59° SE 23:31:28 17° SSW
SL-4 R/B 2.4 23:23:45 10° W 23:27:38 41° SSW 23:31:42 10° SE
Cosmos 2219 Rocket 4.3 23:31:54 10° WNW 23:34:13 13° W 23:36:32 10° WSW
ATLAS CENTAUR R/B 3.4 23:31:24 10° W 23:34:23 24° NNW 23:37:28 10° NNE
Cosmos 2074 Rocket 4.1 23:33:38 18° S 23:38:25 77° E 23:44:39 10° NNE
Cosmos 1892 2.4 23:38:13 24° S 23:40:15 87° E 23:43:47 10° NNE
Cosmos 371 Rocket 3.5 23:38:59 16° SW 23:42:50 68° WNW 23:47:39 10° NNE
USA 234 3.7 23:40:08 10° E 23:46:37 66° N 23:53:05 10° WNW
NOSS 8 (A) 4.1 23:43:50 10° NW 23:46:44 63° SW 23:49:44 13° SE
Cosmos 2151 Rocket 4.2 23:43:04 10° NNW 23:47:16 44° W 23:50:04 19° SSW
Cosmos 1975 Rocket 4.4 23:49:29 12° SSE 23:53:01 32° E 23:56:55 10° NNE
Cosmos 1538 Rocket 4.0 23:49:10 10° NNW 23:54:24 89° ENE 23:59:37 10° SSE
Okean 2 Rocket 3.8 23:50:23 10° NNW 23:54:35 42° W 23:57:29 18° SSW
Cosmos 2263 Rocket 3.7 23:50:27 11° SSE 23:54:41 25° ESE 23:59:09 10° NE
MOZ.5/SAFIR/RUBIN 5/SL-8 4.4 23:50:10 10° SE 23:54:42 54° ENE 23:59:13 10° N
